Location: Hurecourt
(47.9030°N, 6.0653°E)
Time: 20:16:39
(UTC+00:00)

USA 267 - Pass Details

Date: 14 July 2020
Orbit: 1102 x 1106 km, 123.0° (Epoch: 12 August)

Event Time Altitude Azimuth Distance (km) Brightness Sun altitude
Exits shadow 00:32:10 32° 201° (SSW) 1,806 3.8 -19.5°
Maximum altitude 00:33:47 36° 230° (SW) 1,678 3.8 -19.5°
Drops below altitude 10° 00:39:43 10° 295° (WNW) 2,964 5.6 -19.3°
Sets 00:42:28 0° 304° (WNW) 3,925 6.4 -19.1°
